Location: Beugnon
(47.6222°N, 3.7850°E)
Time: 00:09:04
(UTC+00:00)

RESURS DK-1 - Pass Details

Date: 09 April 2020
Orbit: 557 x 561 km, 69.9° (Epoch: 04 June)

Event Time Altitude Azimuth Distance (km) Brightness Sun altitude
Rises 20:43:49 0° 333° (NNW) 2,760 7.1 -21.4°
Reaches altitude 10° 20:46:04 10° 337° (NNW) 1,860 5.9 -21.6°
Maximum altitude 20:50:11 63° 59° (ENE) 632 2.4 -22.2°
Enters shadow 20:50:13 63° 62° (ENE) 632 2.4 -22.2°
